STARLINK-4768, 53806

Orbit data source: Space-Track

STARLINK-4768, 53806 is a payload satellite owned by SpaceX/Seattle (US) in LEO that was launched on Sun, 11 Sep 2022 UTC via an FALCON 9 launch vehicle from the Air Force Eastern Test Range (AFETR). Payload-class satellites include a variety of spacecraft equipped with specific instruments for various scientific and technological missions. These include communications satellites like Starlink; space stations such as the ISS; scientific satellites like the Hubble; Earth observation satellites from companies like Planet Labs, Umbra, and HawkEye 360; GPS; miniature CubeSats for education and research; and military/defense satellites.

Loading next visibility...
Identifier
53806, 2022-111AK
Orbit
LEO
Country
Flag of USUS
Related business
Manufacturer
SpaceX/Seattle
Mission
Operational Commercial Communications
Bus & Motor
STARLINK, Unknown motor
Mass
305 kg wet, ~290 kg dry
Launch date (UTC)
2022-09-11 (4 years ago)
Launch vehicle
FALCON 9
Launch site
Air Force Eastern Test Range (AFETR)
Object type
Payload
Rocket body
Debris
Shape & HBR
Box + 1 Pan, 10.1 m
Radar Cross Section
13.562 m², Large (>1 m²)

Expand to show TLE details & history
Last TLE update: 10 hours ago

TLE from 10 hours ago
0 STARLINK-4768
1 53806U 22111AK  26127.87349053 -.00000456  00000-0 -10543-4 0  9990
2 53806  53.2188 343.2779 0001493  91.8342 268.2821 15.08840688202966
Epoch: 2026-05-07T20:57Z
TLE epoch observation values (Epoch: 2026-05-07T20:57:49.581Z)
Latitude
-0.00005°
Longitude
163.10789°
Altitude
540.67 km
Speed
7.593 km/s
True Right ascension
22h 53m 06s
True Declination
0° 00' 00"
Sunlit
Object was in daylight at epoch
Visualization orbit readout
Latitude
Unknown
Longitude
Unknown
Altitude
Unknown
Speed
Unknown
Apparent Right ascension
Unknown
Apparent Declination
Unknown
Sunlit
N/A
Visualization observer readout
Local Sidereal Time
14:57:57
Azimuth
Unknown
Elevation
Unknown
Doppler factor
Unknown
Orbital elements
Apogee altitude
541.019 km
Perigee altitude
538.953 km
Semi-major axis
6,918.123 km
Eccentricity
0.00015
Inclination
53.2188°
RAAN
343.2779°
Arg. of periapsis
91.8342°
True anomaly
268.265°
Mean anomaly
268.2821°
Eccentric anomaly
268.27355°
Mean motion
3.77191 °/min
Orbital period
95.44 mins
BSTAR
-0.000010543
Loading maneuver chart data...
Computing Atmospheric mass density...
Loading historical data...
Loading historical data...
Loading historical data...
Loading historical data...
Loading historical data...
Loading historical data...
Loading historical data...

Documentation

Showing up to 5 results
|